欧洲卫星公司-15星 (SES-15)

导读

SES 15是由SES公司发射的通信卫星,于2017年5月18日发射升空。该卫星定点于地球静止轨道,主要为北美地区提供宽带通信服务,同时搭载了WAAS导航增强有效载荷,可提升GPS定位精度,支持航空等领域的导航需求,设计寿命超过15年,目前仍在轨服役,增强了SES卫星网络的容量与冗余度。

Basic Information
目录编号:
42709
目录名称:
SES 15
国际标识:
2017-026A
轨道中心:
EARTH
卫星名称:
欧洲卫星公司-15星
卫星全名:
欧洲卫星公司-15星 (SES-15)
卫星状态:
在轨 (已飞行3316 天)
发射日期:
2017-05-18 UTC
国别 :
(SES)
星等 :
--
Orbit Information
数据来源 国际轨道数据 AOE轨道数据
星历时间 2026-06-16T15:11:02+0800
5小时前
查看轨道信息
2026-06-13T14:00:00+0800
3天前
查看轨道信息
半长轴 42165.822km 42165.093km
偏心率 0.0000398 0.0000962
轨道倾角 0.019° 0.021°
近地点辐角 53.982° 41.695°
升交点赤经 337.075° 339.369°
平近点角 212.087° 201.348°
近地点 35786.006km 35782.899km
远地点 35789.364km 35791.013km
周期 1436.153分钟 1436.115分钟
每日圈数 1.002679 1.002705
Detailed Information
卫星平台:
BSS-702HP
平衡模式:
三轴稳定
覆盖范围:
大西洋
运营商:
欧洲卫星公司
运营商所在国:
卢森堡
制造商(研发单位):
波音公司
制造商所在国:
美国
使用方式:
暂无
Satellite Introduction
欧洲卫星公司:成立于1985年,总部设在卢森堡。该公司通过运营ASTRA、AMERICOM及 NEW SKIES卫星系统为客户提供电视、广播和多媒体直接到户的信息传送服务,是世界第二大卫星运营商。该卫星仍在工作。
2D Orbit Map
3D Orbit Map
Orbit Altitude Analysis Chart
Orbit Inclination Analysis Chart
Orbit Comprehensive Analysis Chart
View Comprehensive Chart